Temp
57 57 56 56 54 52 47 36 31 51 52 37 34 33 40 50 52 55 51 52 49 47 48 45 47 50 54 59 58 50 54 47 55 61 66 74 70 66 57 50 49 52 58 56
57 57 56 55 53 52 42 34 33 47 47 30 33 41 45 49 47 46 48 47 48 48 44 41 47 49 57 57 54 48 50 43 44 49 55 60 60 66 67 62 52 58 52 53
57 57 56 55 54 53 45 37 31 36 39 38 37 34 38 39 49 49 49 47 47 43 41 44 42 46 53 56 56 59 50 40 43 45 50 57 56 63 66 64 57 60 60 58
57 57 56 55 54 53 46 41 34 33 29 33 33 37 38 37 37 44 46 41 43 40 32 37 39 45 46 52 54 50 44 35 42 48 54 57 60 62 67 61 65 60 64 59
57 57 56 56 54 53 44 38 37 41 37 40 33 35 37 37 40 39 40 38 42 40 35 37 36 39 38 40 46 44 41 38 41 44 56 59 59 64 66 69 69 65 66 59
57 57 57 56 54 50 43 45 45 40 38 37 35 35 35 37 41 44 43 41 41 39 41 44 44 45 44 44 40 38 38 38 37 35 49 51 51 62 66 68 70 69 62 66
57 57 57 56 55 51 45 46 44 36 32 36 38 38 39 38 39 37 44 46 42 46 49 47 44 41 43 46 44 47 39 37 38 36 41 39 60 71 73 70 71 68 66 69
57 57 57 57 56 54 44 47 44 39 33 38 39 39 41 39 39 38 40 45 47 46 41 35 32 34 35 40 47 45 47 43 36 35 36 47 60 65 67 64 63 69 71 71
57 57 58 58 57 55 45 43 46 42 36 35 42 34 37 32 35 37 40 47 46 40 35 32 27 28 34 36 43 49 47 48 46 39 36 38 50 59 63 64 62 71 70 70
57 57 57 58 57 55 46 42 44 43 37 39 39 37 33 37 35 32 34 38 38 39 32 32 29 28 38 32 36 37 39 41 38 40 40 46 54 57 62 51 62 66 69 70
56 57 57 57 57 57 49 44 46 43 39 42 45 46 41 41 40 34 35 35 34 32 32 32 34 30 35 33 39 38 39 39 38 42 41 37 57 57 50 53 58 66 66 66
56 57 57 57 57 56 54 42 49 48 42 41 46 47 48 47 46 40 40 36 35 36 33 34 34 34 35 32 31 43 38 43 41 46 46 52 55 57 58 58 57 59 65 65
56 56 57 57 56 56 54 46 44 44 41 43 42 39 47 49 49 52 38 43 43 39 44 39 37 34 37 34 35 40 45 48 45 49 51 54 56 59 59 60 58 59 60 62
56 56 56 56 56 56 55 45 44 44 42 35 38 48 42 49 48 47 48 46 44 46 43 38 35 34 40 35 39 39 46 48 48 49 52 56 57 57 58 59 61 61 61 59
56 56 56 56 56 55 52 47 47 47 41 36 37 45 46 48 47 47 46 45 43 42 38 37 36 39 38 38 38 41 49 47 46 45 51 51 52 55 58 57 58 59 59 59
55 55 56 55 55 54 47 39 45 47 47 39 34 41 43 47 47 47 45 44 41 43 42 39 41 44 40 36 34 43 49 52 51 50 53 54 55 56 58 57 59 61 60 60
55 55 55 55 54 50 43 41 46 50 48 39 35 37 45 50 47 44 43 45 42 41 40 40 40 41 41 35 37 45 48 52 53 55 55 52 54 54 58 59 61 61 62 62
54 54 54 54 53 52 47 49 50 50 44 41 35 35 39 50 44 43 47 43 42 42 42 43 41 44 43 37 44 49 52 54 55 55 56 55 56 56 55 59 60 59 59 60
54 54 54 50 48 45 46 53 52 49 44 36 36 34 35 47 44 45 45 46 40 45 41 43 43 39 34 43 47 49 51 51 51 53 54 54 53 52 54 55 55 55 56 59
54 50 46 43 45 56 53 47 43 42 42 39 33 38 36 42 44 44 43 45 41 38 41 44 39 40 47 48 49 51 51 52 54 50 49 51 50 50 52 53 55 55 55 58
45 41 40 46 55 49 45 39 35 35 33 34 35 35 36 45 39 40 45 39 39 33 38 39 37 36 44 49 50 51 52 53 53 53 52 53 52 52 52 53 55 56 56 56
47 47 50 46 43 44 42 39 37 34 35 40 38 40 41 44 47 42 42 36 38 34 45 38 33 38 46 49 50 52 52 53 54 54 54 55 57 57 56 57 57 57 58 58
47 43 44 42 42 39 39 35 40 41 45 46 46 45 46 45 45 42 42 40 38 45 36 32 39 45 48 50 52 52 54 55 55 56 56 56 57 59 57 57 58 60 60 60
44 42 37 41 40 42 42 43 44 48 48 48 47 45 46 47 44 45 41 42 42 36 33 37 45 47 49 51 52 52 53 55 56 57 58 57 57 57 59 59 57 58 57 58
45 46 36 40 45 46 50 51 51 54 57 50 46 46 47 42 42 43 41 39 34 35 37 43 47 49 50 51 52 54 55 56 56 56 57 58 58 57 56 57 58 57 57 58
50 47 44 45 45 47 50 50 50 56 56 51 48 45 42 42 42 41 37 35 34 40 44 47 48 50 51 51 52 52 54 56 54 56 57 57 57 57 59 59 60 60 60 59
49 46 46 43 44 42 45 50 51 56 53 45 46 41 40 44 40 39 42 40 43 46 47 48 49 49 50 51 54 53 55 54 56 57 57 56 57 58 56 54 56 57 58 59
MSLP
1021.07 1020.51 1019.95 1019.43 1018.90 1018.21 1017.66 1017.91 1016.94 1012.94 1012.74 1013.32 1013.84 1013.27 1012.13 1009.63 1008.25 1007.51 1007.28 1006.82 1006.78 1006.73 1006.40 1006.01 1005.41 1004.52 1003.87 1003.72 1003.19 1002.78 1002.06 1000.80 999.34 997.73 996.63 996.11 996.92 997.72 999.01 999.84 1000.02 999.53 998.67 996.74
1020.85 1020.30 1019.75 1019.30 1018.85 1018.44 1018.51 1018.27 1017.16 1014.10 1013.68 1015.21 1015.15 1014.09 1012.38 1010.94 1009.89 1009.23 1008.53 1007.96 1007.89 1007.89 1007.66 1007.45 1006.70 1005.98 1005.41 1005.20 1004.97 1004.84 1004.33 1002.52 1001.11 999.05 997.87 996.83 996.61 996.67 997.05 997.54 998.19 997.42 997.62 996.04
1020.46 1019.92 1019.46 1019.04 1018.74 1018.46 1018.66 1018.70 1018.16 1016.46 1015.75 1015.95 1015.93 1015.11 1013.67 1012.50 1011.31 1010.20 1009.79 1009.16 1008.88 1008.97 1008.91 1008.61 1008.07 1007.24 1006.49 1006.39 1005.85 1005.61 1005.17 1004.35 1003.01 1001.12 999.33 997.82 996.88 996.11 995.80 996.13 995.93 996.13 995.01 996.02
1019.92 1019.46 1019.09 1018.76 1018.54 1018.30 1018.55 1018.77 1018.61 1018.44 1017.69 1016.91 1016.70 1015.77 1014.43 1013.47 1012.77 1012.19 1010.91 1010.14 1010.16 1010.21 1010.00 1009.81 1009.38 1008.80 1007.84 1007.23 1006.83 1006.65 1006.54 1005.99 1004.15 1002.29 1000.75 998.37 997.07 995.98 994.68 994.10 994.01 994.02 994.62 994.84
1019.64 1019.24 1018.87 1018.51 1018.28 1018.21 1018.70 1018.76 1018.63 1018.20 1017.80 1017.21 1016.83 1015.93 1014.85 1014.08 1013.55 1013.11 1011.96 1011.68 1011.04 1010.86 1010.91 1010.73 1010.68 1009.97 1009.54 1008.87 1007.71 1007.55 1007.38 1006.57 1005.05 1002.85 1000.61 998.55 996.50 994.66 993.04 991.87 992.54 993.29 993.49 993.62
1019.51 1018.97 1018.56 1018.21 1018.05 1018.17 1018.54 1018.25 1018.11 1018.00 1017.42 1017.08 1016.74 1015.96 1015.28 1014.82 1014.22 1012.98 1012.83 1012.16 1011.38 1010.84 1010.81 1010.84 1010.59 1010.29 1009.91 1009.38 1008.91 1008.51 1008.20 1007.14 1005.96 1003.52 1001.29 999.20 995.97 990.90 992.05 991.89 991.61 991.75 992.06 992.50
1019.49 1018.95 1018.45 1018.03 1017.82 1017.89 1018.24 1017.93 1017.86 1017.90 1017.12 1016.83 1016.20 1015.84 1015.46 1014.78 1014.36 1013.78 1012.78 1012.05 1011.39 1010.67 1010.51 1010.26 1009.67 1009.43 1008.98 1008.52 1008.24 1008.03 1007.78 1007.51 1006.46 1004.46 1001.90 998.83 991.84 991.60 991.17 991.23 991.09 991.08 991.00 991.34
1019.23 1018.74 1018.27 1017.81 1017.48 1017.34 1017.87 1017.69 1017.75 1017.41 1016.82 1016.25 1015.73 1015.45 1014.86 1014.62 1014.10 1013.52 1012.68 1011.62 1011.26 1011.04 1011.02 1010.73 1010.05 1009.19 1008.21 1007.22 1006.40 1006.29 1006.50 1006.66 1005.96 1004.71 1002.06 997.70 994.16 992.66 991.60 990.88 990.72 990.75 990.49 990.57
1019.11 1018.52 1017.95 1017.50 1017.12 1016.89 1016.97 1017.06 1017.06 1017.09 1016.50 1015.45 1015.13 1015.23 1014.99 1014.75 1014.08 1013.33 1012.50 1011.68 1011.11 1011.38 1011.50 1011.14 1010.56 1009.52 1008.03 1006.29 1004.84 1004.07 1004.63 1004.79 1004.62 1003.67 1001.78 998.46 995.33 994.04 993.15 991.79 989.74 988.92 989.32 989.68
1018.79 1018.20 1017.63 1017.07 1016.64 1016.39 1016.58 1016.64 1016.43 1016.47 1015.79 1014.75 1014.91 1014.47 1014.30 1014.10 1013.92 1013.65 1012.85 1012.19 1011.55 1011.46 1011.66 1011.39 1010.58 1009.40 1008.06 1006.66 1004.59 1004.31 1004.71 1005.05 1003.96 1003.36 1001.61 998.37 996.10 994.39 992.96 993.09 990.45 989.44 989.20 989.40
1018.46 1017.77 1017.25 1016.65 1016.20 1015.89 1016.13 1016.13 1016.01 1016.12 1015.15 1013.89 1013.59 1013.23 1013.33 1013.24 1013.39 1013.25 1012.65 1012.32 1011.88 1011.90 1011.81 1011.31 1010.23 1009.06 1007.53 1006.32 1004.52 1002.88 1002.44 1002.37 1002.43 1002.74 1001.26 999.39 996.79 995.18 996.07 994.89 992.33 990.36 988.85 989.01
1017.85 1017.12 1016.50 1016.03 1015.67 1015.47 1015.44 1015.78 1015.26 1015.32 1015.15 1013.40 1012.91 1012.31 1011.98 1011.86 1011.87 1012.33 1012.61 1012.21 1011.86 1011.42 1011.41 1011.19 1010.52 1009.39 1008.34 1006.17 1004.58 1002.21 1001.82 1000.33 1000.23 1000.09 999.23 997.62 997.12 997.16 996.31 995.24 993.68 992.00 989.09 989.63
1017.04 1016.29 1015.54 1015.01 1015.03 1014.99 1014.96 1014.95 1014.83 1014.91 1014.31 1012.49 1011.76 1010.71 1010.23 1010.56 1010.67 1011.05 1011.74 1011.21 1011.11 1010.73 1010.43 1010.80 1010.34 1009.57 1008.50 1006.66 1004.35 1003.11 1000.88 999.60 999.33 998.67 998.00 997.98 996.73 996.59 996.42 995.58 994.20 992.83 991.72 990.64
1015.99 1015.24 1014.42 1014.03 1013.85 1013.84 1013.84 1014.29 1014.24 1014.59 1014.34 1013.06 1010.56 1009.63 1009.42 1008.81 1009.39 1009.96 1010.10 1010.23 1009.98 1010.00 1010.34 1010.30 1009.99 1009.29 1008.13 1006.35 1004.75 1003.25 1000.81 999.30 998.38 997.88 997.83 997.23 996.25 996.81 996.91 996.09 994.68 993.67 993.25 992.87
1014.79 1014.19 1013.42 1013.00 1013.01 1012.98 1012.92 1013.15 1012.75 1013.24 1014.11 1012.52 1010.60 1009.33 1007.85 1007.68 1008.19 1008.48 1009.08 1009.61 1010.10 1010.12 1010.16 1009.73 1008.81 1007.80 1007.26 1005.81 1004.41 1001.42 999.78 998.29 998.02 997.27 997.36 997.20 997.40 998.75 998.04 997.06 995.56 994.85 994.67 994.30
1013.63 1012.94 1012.01 1011.98 1012.05 1012.39 1012.87 1012.71 1011.90 1012.20 1012.86 1012.65 1011.36 1009.44 1007.95 1007.43 1007.34 1007.40 1007.81 1008.06 1009.23 1009.48 1008.79 1008.03 1007.16 1006.36 1006.50 1004.72 1002.35 1000.02 998.73 998.09 997.47 997.07 996.90 996.56 997.86 998.33 998.34 997.93 996.34 996.03 995.42 995.74
1012.38 1011.56 1011.17 1010.77 1011.36 1011.87 1012.20 1011.87 1011.41 1011.59 1012.26 1012.56 1011.51 1009.86 1007.87 1006.75 1006.33 1006.39 1006.95 1007.48 1007.74 1007.88 1007.40 1006.28 1005.89 1005.36 1005.23 1003.78 1000.97 998.41 997.63 997.32 997.06 996.98 996.31 997.33 998.47 999.65 997.72 996.85 997.18 996.65 996.26 996.04
1011.23 1010.28 1009.75 1009.56 1010.30 1010.79 1010.88 1010.32 1010.75 1011.24 1011.82 1012.12 1011.51 1010.00 1008.51 1006.72 1006.44 1006.10 1005.90 1006.65 1006.72 1006.25 1006.14 1005.31 1004.36 1003.39 1002.81 1001.24 998.45 995.89 995.63 997.06 997.19 997.45 997.09 998.10 999.61 999.18 998.50 997.48 997.15 996.88 997.05 996.96
1010.34 1009.58 1009.15 1009.53 1010.09 1010.45 1009.93 1009.81 1010.03 1010.59 1011.72 1011.53 1011.14 1010.28 1008.70 1007.44 1006.73 1006.46 1006.36 1006.24 1006.49 1006.01 1005.58 1004.80 1004.22 1003.10 1002.25 1000.64 998.61 997.26 996.88 996.99 997.55 997.76 997.53 999.16 999.26 998.95 998.93 998.17 998.28 998.33 998.27 997.90
1009.81 1009.49 1009.51 1009.74 1010.08 1009.42 1009.69 1010.04 1010.52 1010.94 1011.11 1011.51 1010.97 1010.11 1009.14 1008.34 1007.04 1006.56 1006.59 1006.22 1006.01 1005.53 1005.24 1004.95 1004.54 1003.25 1001.96 1000.78 999.80 999.14 997.88 997.58 997.76 997.62 999.46 999.84 999.70 999.83 1000.00 999.52 998.98 999.10 999.60 999.03
1010.81 1010.95 1010.80 1010.33 1009.75 1009.64 1009.56 1009.88 1010.32 1010.69 1010.68 1010.54 1009.98 1009.67 1008.82 1007.84 1007.30 1006.77 1006.44 1006.45 1006.36 1005.83 1005.32 1004.97 1004.63 1003.79 1002.29 1001.10 999.98 999.14 999.11 998.45 998.97 999.20 999.64 1000.15 1000.17 1000.09 999.81 999.58 999.36 999.52 999.83 999.22
1012.00 1011.99 1011.34 1010.67 1010.08 1009.51 1009.34 1009.12 1009.47 1009.65 1008.83 1008.23 1008.19 1007.82 1007.82 1007.10 1006.58 1006.49 1006.70 1006.57 1006.42 1005.59 1005.24 1005.28 1005.34 1004.92 1003.28 1002.04 1000.85 1000.55 1000.12 1000.01 999.75 999.86 1000.03 999.93 999.43 999.60 1000.12 1000.11 999.52 999.78 1000.10 1000.37
1011.52 1011.52 1011.34 1010.91 1010.33 1009.80 1009.49 1009.07 1008.36 1007.79 1007.16 1006.87 1006.64 1006.55 1006.51 1006.68 1006.38 1006.30 1006.12 1006.06 1006.13 1006.03 1005.96 1006.22 1005.45 1004.60 1003.68 1003.01 1002.18 1001.51 1001.09 1000.77 1000.65 1000.58 1000.62 1000.76 1000.74 1000.82 1000.80 1000.72 1000.71 1000.58 1000.61 1000.05
1011.87 1012.18 1012.11 1012.01 1011.26 1010.87 1010.34 1009.30 1008.30 1007.23 1006.53 1005.64 1005.79 1006.09 1006.13 1005.92 1006.14 1006.19 1006.26 1006.97 1006.85 1006.94 1007.00 1006.47 1006.17 1005.41 1005.04 1003.87 1003.55 1003.03 1002.41 1002.04 1001.74 1001.27 1001.28 1001.62 1001.81 1001.70 1001.56 1001.65 1001.22 1000.77 1000.49 1000.85
1012.37 1012.97 1013.61 1013.05 1012.63 1011.44 1010.14 1008.86 1007.39 1006.14 1005.32 1005.09 1005.41 1005.72 1006.05 1006.51 1006.85 1007.59 1007.83 1007.81 1008.25 1008.54 1008.12 1007.53 1007.03 1006.31 1005.60 1004.88 1004.29 1003.65 1003.18 1002.84 1002.77 1002.68 1002.68 1002.33 1002.24 1002.27 1002.34 1001.95 1001.34 1001.62 1001.73 1001.91
1012.68 1013.89 1014.46 1013.77 1012.71 1011.50 1009.79 1008.79 1007.99 1006.55 1005.54 1005.52 1006.21 1006.96 1007.44 1008.26 1008.70 1009.01 1009.49 1009.49 1009.19 1009.21 1008.82 1008.42 1007.66 1007.00 1006.22 1005.75 1005.43 1005.01 1004.60 1004.19 1003.85 1003.57 1003.49 1003.65 1003.99 1003.79 1003.65 1003.43 1003.33 1003.04 1002.87 1002.97
1014.46 1015.07 1014.68 1014.41 1013.80 1013.16 1011.99 1010.56 1009.31 1008.13 1007.44 1007.33 1007.60 1009.01 1010.18 1010.54 1010.83 1010.80 1010.66 1010.82 1010.72 1010.08 1009.61 1009.05 1008.43 1007.94 1007.48 1006.87 1006.58 1006.34 1005.89 1005.77 1005.62 1005.50 1005.55 1005.52 1005.31 1004.95 1004.95 1005.08 1004.96 1004.45 1004.41 1004.45
Wind_Speed
19 20 19 17 16 17 6 2 5 5 6 7 3 5 12 8 14 11 4 3 4 4 5 3 3 5 8 14 8 6 6 3 15 19 7 17 14 16 10 6 13 9 12 13
19 19 18 14 13 11 2 4 4 7 4 5 6 9 9 8 12 7 6 4 4 4 4 4 4 5 7 16 12 6 8 5 2 6 5 3 10 13 17 12 3 20 10 7
19 18 16 12 11 9 2 3 6 6 5 2 4 6 5 11 12 9 8 3 5 4 4 5 5 7 3 13 8 12 2 3 3 7 5 2 7 11 16 16 13 16 18 7
19 18 16 12 9 6 2 0 3 1 5 5 5 7 5 7 8 8 8 4 8 3 1 2 1 4 9 8 7 5 5 2 4 6 12 15 15 12 26 21 23 18 15 12
19 15 15 11 9 3 1 1 2 1 4 6 5 5 2 2 8 3 6 10 13 3 4 1 6 1 1 5 6 7 4 4 6 5 9 13 17 17 24 28 24 13 15 8
17 16 14 11 8 5 2 3 3 2 4 3 3 2 2 8 14 3 5 12 13 5 1 6 10 10 8 7 3 2 3 1 6 6 9 12 11 30 20 15 16 18 18 10
18 17 15 12 7 9 3 2 1 2 3 5 7 7 13 14 10 11 12 16 5 4 7 8 8 9 15 15 14 13 4 2 3 6 6 9 12 11 16 21 17 9 5 10
18 17 16 13 10 5 3 2 2 2 3 6 10 8 11 8 8 12 12 13 4 5 6 4 5 6 2 13 21 21 19 6 3 3 4 11 15 8 7 12 10 8 15 11
18 18 16 14 10 8 2 3 3 3 3 5 6 2 4 7 4 6 5 9 7 3 2 2 5 4 4 6 4 22 20 18 8 3 5 7 1 15 22 18 20 14 14 12
17 17 17 17 15 11 3 4 5 2 4 5 6 7 5 3 2 4 5 5 5 2 2 3 4 5 4 5 6 5 9 9 13 9 6 10 7 23 11 5 11 6 11 11
18 18 17 16 15 13 1 4 5 3 4 9 13 16 12 10 7 6 4 6 2 2 2 3 3 4 5 4 7 4 10 9 8 10 10 11 12 11 9 11 22 13 8 8
18 19 19 18 16 14 8 3 2 3 5 8 9 13 14 16 19 5 5 6 3 3 2 2 3 3 5 4 5 5 6 7 10 12 8 4 2 2 15 16 14 11 6 6
21 21 21 20 16 15 10 4 3 2 4 8 7 10 13 11 18 14 7 8 7 5 4 1 3 6 3 5 7 8 8 6 7 3 5 6 7 12 12 14 8 11 12 11
23 23 23 21 17 15 12 4 3 2 3 5 7 3 7 9 11 14 20 15 1 4 3 3 3 3 5 4 6 12 10 10 11 3 3 4 9 13 12 11 9 13 16 16
25 23 23 21 19 14 6 4 6 7 5 4 7 14 7 4 12 14 16 17 12 5 2 4 5 5 6 4 9 9 10 12 11 8 6 7 6 11 11 5 10 12 12 15
26 24 22 19 15 9 2 4 1 6 6 2 5 4 5 4 7 10 14 14 7 5 5 4 4 6 5 5 4 10 9 8 6 4 5 15 5 8 10 0 9 11 14 10
28 26 21 17 10 4 4 5 3 9 3 1 4 5 5 6 4 3 3 8 5 5 4 4 7 9 6 5 6 8 15 8 7 12 15 13 6 4 10 8 9 11 14 13
29 28 21 13 8 6 5 7 11 4 3 2 3 5 5 4 3 3 3 3 3 3 3 4 4 3 5 5 14 14 15 14 12 8 12 11 4 5 2 8 11 16 13 12
30 22 3 5 2 2 3 6 5 4 2 2 2 2 3 5 2 1 1 2 1 3 3 3 4 4 3 11 17 19 10 8 13 13 16 7 6 8 9 13 13 13 10 10
20 4 3 2 0 4 12 3 2 2 2 1 3 2 4 2 2 0 1 1 2 3 2 3 2 3 9 11 9 9 12 12 11 22 9 8 8 7 7 8 8 8 6 8
5 5 3 3 3 1 1 1 1 1 2 3 3 5 3 3 3 1 2 1 2 2 3 3 5 7 11 14 15 11 12 14 14 12 9 5 4 5 6 7 8 7 6 9
4 7 5 3 3 2 3 3 1 1 4 5 4 4 5 3 1 2 2 0 2 3 3 2 4 6 13 14 15 13 11 12 11 10 8 8 9 9 5 4 7 8 6 4
1 1 3 4 5 6 7 6 4 5 2 2 3 2 2 1 1 2 2 3 4 3 4 3 3 6 7 13 11 10 9 10 10 10 8 7 5 6 6 4 4 4 4 6
4 6 9 6 6 6 5 12 8 6 5 6 1 2 1 1 2 3 4 4 4 5 6 6 8 9 12 9 8 8 10 8 10 12 11 10 11 8 8 8 6 6 10 7
5 5 6 5 5 6 9 7 7 12 9 3 3 3 3 4 5 5 5 6 6 6 6 5 7 9 9 9 10 13 15 16 14 14 15 18 17 13 12 13 15 13 11 11
4 7 6 8 6 12 15 13 10 13 12 3 4 6 6 8 5 7 8 4 6 4 4 4 6 9 10 12 12 13 13 15 15 16 17 16 14 11 14 15 12 12 13 13
6 4 3 3 3 5 5 10 10 9 9 6 4 8 7 3 7 8 6 6 5 5 6 4 6 6 7 7 10 10 13 14 13 16 15 13 13 16 14 13 11 11 13 12
Wind_Direction
329 328 329 332 331 330 36 19 329 287 5 45 6 0 313 313 308 356 293 281 276 301 34 317 248 245 18 24 354 21 336 268 243 226 221 202 208 208 166 163 223 244 237 232
324 324 330 330 331 351 348 326 268 307 61 59 1 336 317 348 8 349 345 330 45 10 11 324 52 330 61 13 14 20 341 304 287 331 294 317 213 204 200 217 163 227 213 245
322 324 328 328 330 344 73 356 329 324 34 107 5 342 326 345 334 312 351 302 76 46 4 37 318 316 357 347 338 3 70 296 236 260 265 283 206 229 215 204 225 228 231 237
325 327 331 325 327 337 94 131 272 220 319 343 324 317 289 352 355 338 320 350 57 6 101 305 120 12 327 338 4 23 75 262 274 299 295 288 266 259 223 215 221 216 228 200
331 328 333 329 331 120 98 265 303 300 261 283 318 302 356 296 330 319 322 343 331 304 232 180 299 12 213 265 327 354 4 281 345 288 256 256 261 255 249 227 218 230 239 219
341 336 338 336 340 130 214 214 259 234 285 287 267 239 341 316 315 276 310 299 308 288 238 290 247 224 234 233 238 314 304 162 359 282 313 318 269 234 247 256 221 199 218 204
343 343 339 340 348 182 188 243 198 214 271 260 284 300 294 295 297 287 295 294 289 297 306 290 262 232 218 225 228 209 205 174 164 267 307 234 265 196 232 235 242 218 158 201
336 335 334 333 324 324 168 215 208 223 255 262 279 269 283 318 295 283 254 266 220 305 302 309 330 315 265 225 227 209 205 181 236 225 239 291 295 319 241 184 232 210 202 214
337 332 330 329 328 334 140 224 183 245 273 218 262 275 285 284 269 308 276 322 294 225 225 216 223 218 286 249 247 210 200 206 187 205 242 236 92 335 334 315 226 199 185 196
330 328 327 325 324 314 154 256 190 207 258 236 225 240 219 267 223 260 286 284 317 100 202 236 239 231 241 264 221 161 174 198 203 234 262 284 343 337 307 161 245 166 187 186
320 318 317 316 317 319 343 253 195 215 259 260 243 238 243 244 235 239 282 354 355 16 227 238 251 234 232 241 250 231 196 160 175 210 219 259 11 350 354 308 300 273 142 151
308 308 303 301 303 300 306 253 217 180 242 275 286 272 248 234 228 205 206 239 313 227 197 223 292 301 288 254 266 237 250 177 175 187 222 256 308 280 294 296 287 308 117 113
299 299 301 300 293 292 277 231 239 252 262 273 255 247 255 231 228 216 237 239 216 233 180 217 259 255 291 273 255 267 276 179 197 148 208 263 31 346 322 317 351 352 3 68
296 294 293 292 291 282 273 202 187 203 267 279 277 309 238 212 205 210 216 228 303 160 147 204 234 248 224 247 285 276 244 191 210 195 222 274 44 354 318 320 12 40 44 46
299 293 292 291 291 290 279 220 217 192 199 271 293 296 273 194 197 204 202 216 223 245 266 227 232 225 230 218 235 251 230 226 197 211 194 116 72 312 307 331 47 53 55 49
303 297 288 284 282 293 75 314 210 181 176 289 297 289 287 288 211 219 201 200 194 209 206 221 225 211 225 265 259 264 255 260 228 182 204 109 83 353 311 238 74 72 72 61
307 304 300 280 253 184 172 204 206 150 116 247 280 285 273 274 256 189 145 177 188 178 234 241 243 247 248 235 251 260 244 238 150 138 111 76 54 231 276 82 89 86 79 71
312 311 304 267 209 205 235 221 214 146 145 208 268 277 306 348 304 12 9 129 175 249 253 297 252 229 214 257 251 303 167 165 127 123 88 94 171 212 354 66 71 72 63 64
316 319 101 88 90 167 247 137 136 155 141 228 221 267 282 348 311 269 333 326 238 255 256 253 324 309 294 306 2 8 52 112 118 103 80 104 77 46 22 54 47 50 47 63
321 24 11 11 300 207 139 170 99 131 166 163 250 287 270 327 283 250 224 268 213 279 318 315 299 283 319 339 357 14 18 82 102 91 84 73 59 48 29 44 57 56 16 35
20 2 326 307 287 255 240 89 69 71 237 212 225 210 249 199 243 221 238 18 358 293 297 346 354 337 358 5 14 16 29 44 62 78 96 75 84 87 49 30 48 50 17 32
298 292 292 306 335 304 325 320 168 217 263 181 209 212 203 250 252 32 79 90 269 352 8 36 10 294 312 336 348 26 20 24 37 37 35 18 33 37 17 360 37 36 26 16
99 343 324 22 329 11 354 327 333 330 283 238 263 156 194 169 155 195 226 6 26 353 26 30 294 310 334 3 17 20 10 28 40 44 48 48 39 32 30 14 5 41 52 45
48 20 359 20 340 357 319 322 321 300 271 320 138 101 24 277 70 358 34 17 20 27 20 28 22 353 19 6 12 3 16 36 65 71 54 59 76 67 62 37 27 53 60 55
60 39 356 348 318 289 324 321 340 345 346 8 21 33 61 11 53 20 13 24 32 10 15 352 349 4 31 25 32 53 54 52 53 52 56 52 49 52 42 20 37 48 49 48
65 41 358 321 347 352 355 356 354 354 351 37 41 21 28 34 26 11 31 17 18 11 330 316 323 2 11 32 35 45 49 49 45 43 46 50 45 45 59 45 34 43 46 48
33 342 318 294 283 310 325 357 349 333 9 11 48 42 26 1 19 11 5 20 344 328 352 333 343 359 357 23 37 42 55 52 50 55 42 44 42 43 41 35 19 37 39 47